Wichita Falls, TX

4:51 AM CST on February 12, 2016 (GMT -0600)
Sheppard Air Force Base-Wichita Falls Municipal

Weather History for KSPS - March, 2013

Change the Weather History Date:

Monday, March 18, 2013

  Actual Average Record
Temperature  
Mean Temperature 54 °F 55 °F  
Max Temperature 66 °F 68 °F 95 °F (1974)
Min Temperature 41 °F 42 °F 21 °F (1965)
Degree Days  
Heating Degree Days 11 11  
Month to date heating degree days 205 237  
Since 1 July heating degree days 2421 2683  
Cooling Degree Days 0 1  
Month to date cooling degree days 10 4  
Year to date cooling degree days 15 7  
Growing Degree Days 4 (Base 50)    
Moisture  
Dew Point 37 °F    
Average Humidity 59    
Maximum Humidity 93    
Minimum Humidity 25    
Precipitation  
Precipitation 0.00 in 0.06 in 1.78 in (1999)
Month to date precipitation 0.27 1.35  
Year to date precipitation 2.95 4.24  
Snow  
Snow 0.00 in 0.00 in - ()
Month to date snowfall 0.0 0.4  
Since 1 July snowfall 3.5 3.8  
Snow Depth -    
Sea Level Pressure  
Sea Level Pressure 29.87 in    
Wind  
Wind Speed 13 mph (NNE)    
Max Wind Speed 26 mph    
Max Gust Speed 30 mph    
Visibility 8 miles    
Events      
T = Trace of Precipitation, MM = Missing Value Source: NWS Daily Summary

Daily Weather History Graph

Daily Weather History Graph

Search for Another Location

Airport or City:

Trip Planner

Search our weather history database for the weather conditions in past years. The results will help you decide how hot, cold, wet, or windy it might be!

Date:

Astronomy

Mar. 18, 2013 Rise Set
Actual Time 7:39 AM CDT 7:44 PM CDT
Civil Twilight 7:15 AM CDT 8:09 PM CDT
Nautical Twilight 6:46 AM CDT 8:38 PM CDT
Astronomical Twilight 6:16 AM CDT 9:07 PM CDT
Moon 11:56 AM CDT (3/18) 1:29 AM CDT (3/18)
Length of Visible Light 12h 54m
Length of Day
12h 04m
Waxing Crescent, 41% of the Moon is Illuminated
Mar 18
Waxing Crescent
Mar 19
First Quarter
Mar 27
Full
Apr 2
Last Quarter
Apr 10
New

Hourly Weather History & Observations

Time (CDT) Temp. Windchill Dew Point Humidity Pressure Visibility Wind Dir Wind Speed Gust Speed Precip Events Conditions
12:52 AM 50.0 °F - 41.0 °F 71% 29.63 in 10.0 mi SSE 4.6 mph - N/A   Clear
1:52 AM 52.0 °F - 42.1 °F 69% 29.60 in 10.0 mi South 13.8 mph - N/A   Clear
2:52 AM 53.1 °F - 42.1 °F 66% 29.59 in 10.0 mi South 11.5 mph - N/A   Clear
3:52 AM 55.9 °F - 43.0 °F 62% 29.60 in 10.0 mi SSW 8.1 mph - N/A   Clear
4:52 AM 46.0 °F 38.0 °F 39.9 °F 79% 29.68 in 10.0 mi NNW 21.9 mph 28.8 mph N/A   Clear
5:52 AM 44.1 °F 40.8 °F 39.9 °F 85% 29.69 in 7.0 mi North 5.8 mph - N/A   Clear
6:52 AM 41.0 °F 31.1 °F 39.0 °F 93% 29.81 in 6.0 mi NNE 23.0 mph 29.9 mph N/A   Partly Cloudy
7:06 AM 42.8 °F 34.3 °F 39.2 °F 87% 29.82 in 6.0 mi NNE 19.6 mph 28.8 mph N/A   Mostly Cloudy
7:52 AM 42.1 °F 33.6 °F 39.0 °F 89% 29.86 in 4.0 mi NNE 18.4 mph - N/A   Overcast
8:16 AM 42.8 °F 35.4 °F 39.2 °F 87% 29.87 in 4.0 mi NNE 15.0 mph - N/A   Scattered Clouds
8:52 AM 44.1 °F 36.2 °F 39.9 °F 85% 29.91 in 5.0 mi North 18.4 mph - N/A   Clear
9:03 AM 44.6 °F 36.9 °F 39.2 °F 81% 29.92 in 5.0 mi North 18.4 mph - N/A   Mostly Cloudy
9:52 AM 45.0 °F 37.9 °F 39.9 °F 82% 29.95 in 6.0 mi North 16.1 mph - N/A   Haze
10:08 AM 48.2 °F - 41.0 °F 76% 29.95 in 5.0 mi North 15.0 mph - N/A   Haze
10:32 AM 46.4 °F 40.4 °F 39.2 °F 76% 29.96 in 5.0 mi North 13.8 mph - N/A   Haze
10:52 AM 50.0 °F - 39.9 °F 68% 29.96 in 6.0 mi North 13.8 mph - N/A   Haze
11:52 AM 55.0 °F - 39.9 °F 57% 29.97 in 9.0 mi North 13.8 mph - N/A   Clear
12:52 PM 59.0 °F - 37.9 °F 46% 29.96 in 10.0 mi NNE 15.0 mph - N/A   Partly Cloudy
1:52 PM 63.0 °F - 36.0 °F 37% 29.94 in 10.0 mi North 16.1 mph 19.6 mph N/A   Partly Cloudy
2:52 PM 64.9 °F - 35.1 °F 33% 29.93 in 10.0 mi NNE 16.1 mph 24.2 mph N/A   Partly Cloudy
3:52 PM 64.9 °F - 33.1 °F 31% 29.91 in 10.0 mi North 16.1 mph - N/A   Scattered Clouds
4:52 PM 66.0 °F - 32.0 °F 28% 29.93 in 10.0 mi NNE 11.5 mph 21.9 mph N/A   Scattered Clouds
5:52 PM 64.9 °F - 28.0 °F 25% 29.95 in 10.0 mi NNE 6.9 mph - N/A   Mostly Cloudy
6:52 PM 63.0 °F - 26.1 °F 25% 29.97 in 10.0 mi NNE 8.1 mph - N/A   Mostly Cloudy
7:52 PM 54.0 °F - 30.9 °F 41% 29.98 in 10.0 mi NE 6.9 mph - N/A   Mostly Cloudy
8:52 PM 52.0 °F - 30.0 °F 43% 29.99 in 10.0 mi NE 6.9 mph - N/A   Scattered Clouds
9:52 PM 50.0 °F - 30.9 °F 48% 29.99 in 10.0 mi NE 9.2 mph - N/A   Scattered Clouds
10:52 PM 48.0 °F - 30.0 °F 50% 30.00 in 10.0 mi ENE 6.9 mph - N/A   Partly Cloudy
11:52 PM 44.6 °F - 30.2 °F 57% 29.99 in 10.0 mi North - - N/A   Clear